Location: Riddle Hill
(39.7867°N, 89.7645°W)
Time: 20:24:51
(UTC+00:00)

Cosmos 1656 - Pass Details

Date: 29 October 2020
Orbit: 797 x 851 km, 71.1° (Epoch: 01 December)

Event Time Altitude Azimuth Distance (km) Brightness Sun altitude
Rises 23:16:31 0° 188° (S) 3,324 7.1 -3.9°
Reaches altitude 10° 23:18:57 10° 184° (S) 2,405 6.3 -4.4°
Maximum altitude 23:24:18 55° 108° (ESE) 993 3.8 -5.4°
Drops below altitude 10° 23:29:47 10° 32° (NNE) 2,456 5.7 -6.4°
Sets 23:32:17 0° 28° (NNE) 3,402 6.5 -6.8°
